sat.trackr.live / text

‹ back to catalog

JILIN-01 KUANFU 02B 2

NORAD 61190 · 2024-169B

PAYLOAD ACTIVE UNKNOWN

§ Identity

Operator
Country
PRC
Launch date
2024-09-20
Launch site
TAISC
Launch vehicle
Mass (kg)
RCS (m²)

External: N2YO · Heavens-Above · Gunter

§ Orbital elements

Epoch: 2026-09-22T21:28:59.017728Z

Period
95.40 min
Inclination
97.5539°
Eccentricity
0.0007409
Mean motion
15.09411552 rev/d
Perigee alt
532.9 km
Apogee alt
543.1 km
Semi-major
6,916.1 km
B*
1.3261e-4
RAAN
353.3156°
Arg perigee
50.6865°
Mean anomaly
309.5019°
Rev number
11,056

§ Raw data

JILIN-01 KUANFU 02B 21 61190U 24169B   26265.89512752  .00002058  00000+0  13261-3 0  99992 61190  97.5539 353.3156 0007409  50.6865 309.5019 15.09411552110566

JSON: /api/v1/satellites/61190 · /tle

For live sub-satellite position, see the globe view (requires WebGL).

§ Visibility from observer

Set your observer location to see the next 7 days of passes ≥ 10°. The values pass through the URL so the page stays shareable.

No JS? Fill the form by hand. The geolocation button needs JavaScript.